Total_Precipitation_Accumulation
1.19 1.25 1.33 1.45 1.35 1.31 1.31 1.24 1.13 1.08 1.12 1.13 1.10 1.16 1.21 1.26 1.30 1.35 1.30 1.26 1.23 1.19 1.16 1.18 1.18 1.19 1.27 1.26 1.20 1.14 1.11 1.20 1.22 0.66 0.47 0.51 0.62 0.68 0.67 0.63 0.57 0.57 0.62
1.14 1.20 1.26 1.39 1.40 1.32 1.33 1.31 1.19 1.10 1.09 1.13 1.15 1.17 1.25 1.30 1.31 1.37 1.36 1.33 1.38 1.35 1.25 1.22 1.20 1.22 1.29 1.33 1.40 1.36 1.24 1.16 1.23 0.99 0.64 0.61 0.72 0.79 0.82 0.80 0.74 0.68 0.65
1.05 1.12 1.22 1.31 1.37 1.34 1.31 1.36 1.32 1.27 1.28 1.25 1.27 1.31 1.34 1.38 1.42 1.47 1.48 1.49 1.53 1.53 1.47 1.42 1.31 1.30 1.35 1.33 1.39 1.42 1.34 1.25 1.21 1.17 0.92 0.78 0.79 0.81 0.91 0.93 0.91 0.88 0.80
1.00 1.12 1.16 1.24 1.28 1.30 1.34 1.34 1.43 1.48 1.54 1.59 1.55 1.52 1.52 1.58 1.69 1.76 1.78 1.77 1.73 1.68 1.63 1.60 1.53 1.46 1.45 1.45 1.48 1.44 1.39 1.41 1.35 1.32 1.16 1.00 0.96 0.90 1.01 1.10 1.16 1.11 1.01
0.92 1.03 1.10 1.18 1.31 1.39 1.43 1.47 1.47 1.57 1.62 1.62 1.65 1.65 1.60 1.76 2.05 2.17 2.03 1.83 1.69 1.62 1.56 1.55 1.58 1.67 1.67 1.71 1.79 1.68 1.59 1.65 1.59 1.53 1.36 1.16 1.04 1.06 1.13 1.15 1.30 1.26 1.20
0.85 0.92 1.00 1.15 1.28 1.43 1.46 1.54 1.57 1.59 1.64 1.63 1.62 1.63 1.60 1.67 2.10 2.22 1.84 1.50 1.42 1.47 1.46 1.37 1.36 1.54 1.61 1.69 1.83 1.82 1.83 1.90 1.90 1.79 1.62 1.40 1.12 1.06 1.17 1.37 1.51 1.63 1.56
0.75 0.85 0.92 1.08 1.18 1.29 1.34 1.36 1.42 1.38 1.35 1.41 1.49 1.45 1.42 1.51 1.88 1.95 1.65 1.22 1.11 1.20 1.24 1.21 1.18 1.23 1.44 1.40 1.52 1.59 1.65 1.78 1.94 2.00 1.97 1.61 1.34 1.22 1.45 1.66 1.67 1.75 1.63
0.69 0.78 0.81 0.95 1.08 1.13 1.20 1.24 1.25 1.20 1.18 1.26 1.28 1.21 1.15 1.22 1.58 1.71 1.50 1.10 1.04 1.09 1.14 1.15 1.12 1.13 1.28 1.48 1.53 1.43 1.35 1.44 1.66 1.82 1.97 1.80 1.60 1.59 1.84 2.10 2.16 2.17 1.94
0.65 0.72 0.75 0.84 1.00 1.02 1.09 1.17 1.15 1.17 1.16 1.13 1.10 1.05 1.00 1.05 1.35 1.62 1.48 1.04 1.07 1.08 1.09 1.15 1.12 1.05 1.35 1.57 1.53 1.45 1.33 1.31 1.43 1.72 1.89 1.95 1.98 2.07 2.25 2.58 2.77 2.82 2.60
0.62 0.70 0.71 0.76 0.88 0.89 0.93 1.00 1.03 1.04 1.08 1.10 1.07 1.01 0.97 0.94 1.18 1.56 1.58 1.13 1.11 1.09 1.08 1.13 1.27 1.24 1.41 1.50 1.40 1.43 1.47 1.30 1.18 1.28 1.40 1.50 1.54 1.65 1.99 2.24 2.56 2.84 2.75
0.56 0.62 0.67 0.73 0.80 0.81 0.83 0.88 0.95 0.99 1.03 1.07 1.08 1.01 0.91 0.92 1.01 1.31 1.66 1.37 1.18 1.09 1.09 1.12 1.16 1.33 1.36 1.43 1.44 1.40 1.54 1.39 1.20 1.27 1.31 1.30 1.34 1.46 1.62 1.86 2.24 2.60 2.80
0.54 0.62 0.66 0.70 0.74 0.76 0.80 0.86 0.89 0.97 1.09 1.11 1.07 1.05 0.97 0.93 0.97 1.14 1.43 1.54 1.38 1.16 1.09 0.97 1.00 1.20 1.25 1.35 1.36 1.42 1.49 1.42 1.32 1.35 1.35 1.33 1.34 1.44 1.55 1.67 1.89 2.14 2.32
0.54 0.59 0.65 0.70 0.69 0.77 0.81 0.88 0.94 1.01 1.11 1.12 1.06 1.03 1.01 0.97 1.02 1.21 1.23 1.30 1.39 1.23 1.15 1.18 1.10 1.16 1.18 1.15 1.20 1.31 1.31 1.25 1.34 1.37 1.29 1.23 1.25 1.35 1.40 1.49 1.59 1.79 1.99
0.54 0.55 0.60 0.69 0.73 0.75 0.81 0.87 0.90 0.95 1.11 1.17 1.12 1.09 1.01 0.97 1.08 1.28 1.23 1.16 1.27 1.27 1.26 1.25 1.21 1.19 1.17 1.12 1.13 1.12 1.09 1.16 1.28 1.28 1.19 1.10 1.11 1.22 1.34 1.44 1.56 1.68 1.90
0.54 0.54 0.58 0.67 0.72 0.73 0.77 0.83 0.89 0.90 1.11 1.30 1.22 1.21 1.18 1.19 1.26 1.46 1.45 1.37 1.39 1.41 1.41 1.39 1.30 1.25 1.23 1.14 1.08 1.03 1.05 1.12 1.18 1.12 1.12 1.12 1.13 1.19 1.27 1.35 1.54 1.66 1.83
0.59 0.59 0.62 0.69 0.71 0.72 0.75 0.81 0.91 0.95 1.02 1.05 1.10 1.19 1.16 1.27 1.34 1.30 1.36 1.40 1.42 1.47 1.49 1.43 1.23 1.12 1.11 1.06 1.03 1.02 0.99 0.98 0.99 1.04 1.10 1.11 1.16 1.21 1.24 1.26 1.44 1.62 1.70
0.63 0.66 0.68 0.71 0.71 0.74 0.72 0.75 0.87 0.90 0.92 0.94 0.97 1.03 1.14 1.24 1.19 1.17 1.23 1.25 1.27 1.27 1.25 1.13 1.05 1.04 1.02 1.00 0.99 0.98 0.98 0.90 0.92 1.01 1.05 1.07 1.11 1.17 1.21 1.24 1.31 1.44 1.52
0.66 0.73 0.76 0.74 0.73 0.74 0.72 0.72 0.78 0.89 0.99 1.01 1.03 1.06 1.12 1.18 1.16 1.16 1.22 1.27 1.27 1.18 1.03 1.00 1.00 0.98 0.98 1.00 1.01 1.00 0.97 0.94 0.97 1.01 1.03 1.05 1.11 1.20 1.22 1.20 1.22 1.33 1.41
0.71 0.75 0.78 0.78 0.77 0.74 0.73 0.76 0.78 0.82 0.92 1.04 1.10 1.14 1.18 1.17 1.15 1.16 1.15 1.11 1.10 1.06 0.99 0.95 0.92 0.92 0.95 0.99 1.02 1.00 1.00 1.00 0.97 1.01 1.02 1.03 1.06 1.14 1.16 1.07 1.08 1.20 1.33
0.77 0.86 0.87 0.83 0.83 0.79 0.79 0.81 0.84 0.87 0.92 1.00 1.08 1.14 1.22 1.24 1.18 1.16 1.05 0.99 1.04 1.04 0.99 0.98 0.92 0.90 0.95 1.01 1.05 1.06 1.06 1.01 0.98 1.00 0.97 0.95 0.96 1.02 1.05 1.00 1.01 1.10 1.17
0.81 0.86 0.90 0.88 0.87 0.86 0.88 0.89 0.90 0.94 0.98 0.98 1.01 1.09 1.32 1.32 1.15 1.00 0.95 0.93 0.97 1.01 1.01 1.00 0.98 0.98 1.00 1.03 1.04 1.04 1.04 0.99 0.96 0.98 0.98 0.94 0.93 0.94 0.93 0.95 0.96 0.98 1.03
0.83 0.85 0.82 0.84 0.88 0.92 0.96 0.96 0.98 0.99 0.98 1.00 1.02 1.05 1.12 1.05 0.98 0.92 0.89 0.88 0.89 0.93 0.98 1.05 1.03 0.97 0.99 1.05 1.08 1.06 1.02 0.95 0.88 0.90 0.93 0.91 0.89 0.88 0.88 0.89 0.88 0.91 0.96
0.85 0.87 0.85 0.84 0.87 0.96 0.96 0.91 0.94 0.97 1.00 1.01 1.00 1.01 0.98 0.97 0.94 0.90 0.89 0.89 0.88 0.86 0.88 0.97 1.00 0.92 0.88 0.92 0.98 1.04 1.05 0.96 0.87 0.88 0.95 0.94 0.88 0.83 0.83 0.84 0.81 0.85 0.90
0.85 0.85 0.86 0.89 0.91 0.92 0.93 0.93 0.93 0.95 1.01 1.06 1.04 1.02 1.00 0.97 0.93 0.86 0.83 0.84 0.84 0.82 0.83 0.88 0.90 0.87 0.83 0.86 0.88 0.88 0.90 0.91 0.94 0.94 0.93 0.94 0.89 0.82 0.83 0.84 0.80 0.79 0.84
0.83 0.84 0.88 0.94 0.98 0.97 0.98 0.97 0.96 0.97 1.01 1.06 1.05 1.03 0.97 0.93 0.89 0.85 0.80 0.80 0.83 0.82 0.80 0.82 0.85 0.85 0.81 0.79 0.81 0.83 0.92 1.00 1.06 1.15 1.23 1.22 1.07 0.91 0.88 0.88 0.83 0.79 0.81
0.79 0.83 0.89 0.97 1.02 1.02 1.02 1.02 0.98 0.98 1.04 1.04 1.02 1.01 0.98 0.95 0.90 0.88 0.86 0.85 0.88 0.87 0.83 0.79 0.79 0.83 0.83 0.79 0.79 0.85 0.94 0.99 1.11 1.31 1.51 1.54 1.28 0.99 0.89 0.89 0.82 0.79 0.82